• în Republica Moldova
  • Lista ţărilor
  • Pe 7 zile
  • Temperatura apei
  • Hartă satelitară
  • Meteo pe hartă
  • Widget-uri
  • user-avatar
    Intrare

    Meteo pe oră la Adelaide

    Astăzi, 13 Decembrie, Joi

    Timp Temperatura Precipitaţii Vânt Presiune Umiditate
    00:00 +18°C° 0.1 mm 7 m/s 749 mmHg 80%
    01:00 +17°C° 0.3 mm 8 m/s 749 mmHg 79%
    02:00 +17°C° 0.3 mm 9 m/s 749 mmHg 78%
    03:00 +17°C° 0 mm 9 m/s 749 mmHg 76%
    04:00 +16°C° 0.3 mm 9 m/s 750 mmHg 73%
    05:00 +16°C° 0.3 mm 10 m/s 750 mmHg 70%
    06:00 +14°C° 0.3 mm 10 m/s 751 mmHg 67%
    07:00 +14°C° 0.3 mm 10 m/s 751 mmHg 63%
    08:00 +16°C° 0.3 mm 10 m/s 752 mmHg 59%
    09:00 +16°C° 0.3 mm 11 m/s 752 mmHg 55%
    10:00 +16°C° 0.2 mm 11 m/s 752 mmHg 54%
    11:00 +16°C° 0.2 mm 11 m/s 752 mmHg 52%
    12:00 +16°C° 0.2 mm 11 m/s 752 mmHg 50%
    13:00 +16°C° 0.2 mm 11 m/s 752 mmHg 51%
    14:00 +16°C° 0.2 mm 11 m/s 753 mmHg 51%
    15:00 +16°C° 0.2 mm 11 m/s 753 mmHg 52%
    16:00 +14°C° 0.1 mm 11 m/s 753 mmHg 56%
    17:00 +14°C° 0.1 mm 11 m/s 753 mmHg 60%
    18:00 +13°C° 0.1 mm 10 m/s 753 mmHg 64%
    19:00 +13°C° 0.1 mm 10 m/s 753 mmHg 65%
    20:00 +13°C° 0.1 mm 10 m/s 753 mmHg 66%
    21:00 +13°C° 0.1 mm 10 m/s 753 mmHg 68%
    22:00 +13°C° 0.1 mm 10 m/s 753 mmHg 70%
    23:00 +13°C° 0.1 mm 10 m/s 752 mmHg 73%

    Mâine, 14 Decembrie, Vineri

    Timp Temperatura Precipitaţii Vânt Presiune Umiditate
    00:00 +13°C° 0.1 mm 11 m/s 752 mmHg 75%
    01:00 +13°C° 0.4 mm 11 m/s 751 mmHg 77%
    02:00 +14°C° 0.4 mm 11 m/s 750 mmHg 79%
    03:00 +14°C° 0.4 mm 11 m/s 750 mmHg 82%
    04:00 +14°C° 0.3 mm 11 m/s 750 mmHg 82%
    05:00 +16°C° 0.3 mm 11 m/s 750 mmHg 83%
    06:00 +16°C° 0.3 mm 11 m/s 750 mmHg 83%
    07:00 +16°C° 0.2 mm 11 m/s 750 mmHg 82%
    08:00 +17°C° 0.2 mm 11 m/s 749 mmHg 81%
    09:00 +17°C° 0.2 mm 11 m/s 749 mmHg 79%
    10:00 +17°C° 0.3 mm 10 m/s 749 mmHg 81%
    11:00 +17°C° 0.3 mm 10 m/s 749 mmHg 83%
    12:00 +17°C° 0.3 mm 10 m/s 748 mmHg 85%
    13:00 +18°C° 0.3 mm 9 m/s 748 mmHg 85%
    14:00 +18°C° 0.3 mm 8 m/s 748 mmHg 84%
    15:00 +18°C° 0.3 mm 8 m/s 748 mmHg 83%
    16:00 +18°C° 0.2 mm 7 m/s 748 mmHg 82%
    17:00 +20°C° 0.2 mm 7 m/s 748 mmHg 80%
    18:00 +20°C° 0.2 mm 6 m/s 748 mmHg 78%
    19:00 +19°C° 0.1 mm 6 m/s 748 mmHg 82%
    20:00 +19°C° 0.1 mm 5 m/s 749 mmHg 86%
    21:00 +17°C° 0.1 mm 5 m/s 749 mmHg 90%
    22:00 +18°C° 0 mm 4 m/s 749 mmHg 91%
    23:00 +18°C° 0 mm 4 m/s 749 mmHg 92%

    Poimâine, 15 Decembrie, Sâmbătă

    Timp Temperatura Precipitaţii Vânt Presiune Umiditate
    00:00 +18°C° 0 mm 3 m/s 749 mmHg 93%
    01:00 +18°C° 0 mm 3 m/s 748 mmHg 93%
    02:00 +17°C° 0 mm 3 m/s 748 mmHg 93%
    03:00 +17°C° 0 mm 4 m/s 748 mmHg 94%
    04:00 +18°C° 0 mm 3 m/s 748 mmHg 92%
    05:00 +18°C° 0 mm 3 m/s 748 mmHg 90%
    06:00 +18°C° 0 mm 3 m/s 749 mmHg 88%
    07:00 +20°C° 0 mm 3 m/s 749 mmHg 77%
    08:00 +22°C° 0 mm 3 m/s 749 mmHg 66%
    09:00 +25°C° 0 mm 4 m/s 749 mmHg 55%
    10:00 +26°C° 0 mm 4 m/s 749 mmHg 51%
    11:00 +27°C° 0 mm 4 m/s 749 mmHg 47%
    12:00 +28°C° 0 mm 5 m/s 748 mmHg 42%
    13:00 +27°C° 0 mm 5 m/s 748 mmHg 44%
    14:00 +27°C° 0 mm 5 m/s 748 mmHg 45%
    15:00 +27°C° 0 mm 5 m/s 748 mmHg 47%
    16:00 +26°C° 0 mm 5 m/s 748 mmHg 51%
    17:00 +25°C° 0 mm 5 m/s 748 mmHg 55%
    18:00 +23°C° 0 mm 5 m/s 748 mmHg 59%
    19:00 +22°C° 0 mm 4 m/s 749 mmHg 66%
    20:00 +21°C° 0 mm 4 m/s 749 mmHg 73%
    21:00 +20°C° 0 mm 3 m/s 749 mmHg 79%
    22:00 +19°C° 0 mm 3 m/s 750 mmHg 82%
    23:00 +19°C° 0 mm 3 m/s 750 mmHg 84%

    16 Decembrie, Duminică

    Timp Temperatura Precipitaţii Vânt Presiune Umiditate
    00:00 +19°C° 0 mm 3 m/s 750 mmHg 86%
    01:00 +18°C° 0 mm 3 m/s 750 mmHg 88%
    02:00 +18°C° 0 mm 3 m/s 750 mmHg 89%
    03:00 +18°C° 0 mm 3 m/s 750 mmHg 91%
    04:00 +18°C° 0 mm 3 m/s 751 mmHg 89%
    05:00 +18°C° 0 mm 3 m/s 751 mmHg 87%
    06:00 +18°C° 0 mm 3 m/s 751 mmHg 85%
    07:00 +19°C° 0 mm 3 m/s 752 mmHg 78%
    08:00 +20°C° 0 mm 3 m/s 752 mmHg 72%
    09:00 +21°C° 0 mm 3 m/s 752 mmHg 66%
    10:00 +24°C° 0 mm 3 m/s 752 mmHg 61%
    11:00 +25°C° 0 mm 3 m/s 752 mmHg 57%
    12:00 +26°C° 0 mm 3 m/s 752 mmHg 52%
    13:00 +26°C° 0 mm 4 m/s 752 mmHg 52%
    14:00 +27°C° 0 mm 4 m/s 752 mmHg 51%
    15:00 +27°C° 0 mm 4 m/s 752 mmHg 51%
    16:00 +26°C° 0 mm 4 m/s 752 mmHg 56%
    17:00 +25°C° 0 mm 4 m/s 752 mmHg 61%
    18:00 +23°C° 0 mm 5 m/s 752 mmHg 67%
    19:00 +22°C° 0 mm 5 m/s 753 mmHg 71%
    20:00 +21°C° 0 mm 4 m/s 754 mmHg 76%
    21:00 +20°C° 0 mm 4 m/s 754 mmHg 81%
    22:00 +20°C° 0 mm 4 m/s 754 mmHg 82%
    23:00 +20°C° 0 mm 3 m/s 754 mmHg 83%

    17 Decembrie, Luni

    Timp Temperatura Precipitaţii Vânt Presiune Umiditate
    00:00 +19°C° 0 mm 3 m/s 754 mmHg 83%
    01:00 +19°C° 0 mm 3 m/s 754 mmHg 85%
    02:00 +19°C° 0 mm 3 m/s 754 mmHg 86%
    03:00 +18°C° 0 mm 3 m/s 754 mmHg 87%
    04:00 +19°C° 0 mm 3 m/s 754 mmHg 86%
    05:00 +19°C° 0 mm 3 m/s 754 mmHg 84%
    06:00 +19°C° 0 mm 3 m/s 755 mmHg 82%
    07:00 +21°C° 0 mm 3 m/s 755 mmHg 74%
    08:00 +22°C° 0 mm 3 m/s 755 mmHg 66%
    09:00 +25°C° 0 mm 3 m/s 755 mmHg 58%
    10:00 +27°C° 0 mm 3 m/s 755 mmHg 53%
    11:00 +28°C° 0 mm 3 m/s 755 mmHg 47%
    12:00 +30°C° 0 mm 3 m/s 755 mmHg 41%
    13:00 +30°C° 0 mm 4 m/s 754 mmHg 42%
    14:00 +30°C° 0 mm 5 m/s 754 mmHg 43%
    15:00 +30°C° 0 mm 6 m/s 754 mmHg 43%
    16:00 +29°C° 0 mm 6 m/s 754 mmHg 50%
    17:00 +27°C° 0 mm 6 m/s 755 mmHg 56%
    18:00 +24°C° 0 mm 6 m/s 755 mmHg 62%
    19:00 +23°C° 0 mm 6 m/s 755 mmHg 65%
    20:00 +22°C° 0 mm 5 m/s 755 mmHg 68%
    21:00 +21°C° 0 mm 5 m/s 755 mmHg 72%
    22:00 +22°C° 0 mm 5 m/s 755 mmHg 71%
    23:00 +22°C° 0 mm 5 m/s 754 mmHg 71%

    18 Decembrie, Marţi

    Timp Temperatura Precipitaţii Vânt Presiune Umiditate
    00:00 +22°C° 0 mm 4 m/s 754 mmHg 71%
    01:00 +22°C° 0 mm 5 m/s 754 mmHg 70%
    02:00 +22°C° 0 mm 5 m/s 753 mmHg 70%
    03:00 +23°C° 0 mm 5 m/s 753 mmHg 69%
    04:00 +23°C° 0 mm 5 m/s 754 mmHg 68%
    05:00 +23°C° 0 mm 5 m/s 754 mmHg 66%
    06:00 +25°C° 0 mm 5 m/s 755 mmHg 64%
    07:00 +27°C° 0 mm 5 m/s 755 mmHg 57%
    08:00 +29°C° 0 mm 4 m/s 755 mmHg 50%
    09:00 +32°C° 0 mm 4 m/s 755 mmHg 43%
    10:00 +33°C° 0 mm 4 m/s 754 mmHg 38%
    11:00 +35°C° 0 mm 3 m/s 754 mmHg 34%
    12:00 +37°C° 0 mm 3 m/s 753 mmHg 29%
    13:00 +37°C° 0 mm 3 m/s 753 mmHg 29%
    14:00 +37°C° 0 mm 3 m/s 752 mmHg 28%
    15:00 +37°C° 0 mm 3 m/s 752 mmHg 28%
    16:00 +36°C° 0 mm 4 m/s 752 mmHg 29%
    17:00 +36°C° 0 mm 5 m/s 752 mmHg 29%
    18:00 +35°C° 0 mm 6 m/s 751 mmHg 30%
    19:00 +35°C° 0 mm 6 m/s 751 mmHg 31%
    20:00 +34°C° 0 mm 6 m/s 751 mmHg 31%
    21:00 +33°C° 0 mm 6 m/s 751 mmHg 32%
    22:00 +33°C° 0 mm 6 m/s 750 mmHg 31%
    23:00 +33°C° 0 mm 7 m/s 750 mmHg 31%
    Arată mai mult